This is the latest recevied weather packets stored in our database for station/object YACHTS. If no packets are shown the sender has not sent any weather packets the latest 1 day(s).
| Time | Temp. | Humidity | Pressure | Rain* | Wind** | Luminosity | Snow |
|---|---|---|---|---|---|---|---|
| 1778013626 | 11.11° C | 90% | 1016.9 hPa | 0 mm | 0 m/s | - | - |
| 1778013314 | 11.11° C | 90% | 1016.9 hPa | 0 mm | 1.34 m/s, 292° | - | - |
| 1778013000 | 11.11° C | 90% | 1017 hPa | 0 mm | 0 m/s | - | - |
| 1778012687 | 11.11° C | 90% | 1016.9 hPa | 0 mm | 1.34 m/s, 316° | - | - |
| 1778012374 | 11.11° C | 89% | 1017 hPa | 0 mm | 1.34 m/s, 298° | - | - |
| 1778012061 | 11.67° C | 90% | 1017 hPa | 0 mm | 1.34 m/s, 296° | - | - |
| 1778011748 | 11.11° C | 89% | 1016.9 hPa | 0 mm | 1.34 m/s, 327° | - | - |
| 1778011435 | 11.67° C | 89% | 1017 hPa | 0 mm | 0 m/s | - | - |
| 1778011122 | 11.67° C | 89% | 1017 hPa | 0 mm | 0 m/s | - | - |
| 1778010496 | 11.67° C | 90% | 1016.9 hPa | 0 mm | 0 m/s | - | - |
| 1778010183 | 11.67° C | 90% | 1016.8 hPa | 0 mm | 0 m/s | - | - |
| 1778009870 | 11.67° C | 90% | 1016.8 hPa | 0 mm | 1.79 m/s, 310° | - | - |
| 1778009558 | 11.67° C | 90% | 1016.8 hPa | 0 mm | 0.45 m/s, 291° | - | - |
| 1778009244 | 11.67° C | 90% | 1016.6 hPa | 0 mm | 1.34 m/s, 295° | - | - |
| 1778008931 | 11.67° C | 90% | 1016.7 hPa | 0 mm | 1.34 m/s, 274° | - | - |
| 1778008305 | 11.11° C | 90% | 1016.7 hPa | 0 mm | 0 m/s | - | - |
| 1778007992 | 11.67° C | 90% | 1016.6 hPa | 0 mm | 0.45 m/s, 295° | - | - |
| 1778007679 | 11.11° C | 90% | 1016.7 hPa | 0 mm | 0 m/s | - | - |
| 1778007365 | 11.11° C | 90% | 1016.7 hPa | 0 mm | 0.89 m/s, 224° | - | - |
| 1778007053 | 11.11° C | 90% | 1016.7 hPa | 0 mm | 0.89 m/s, 305° | - | - |
| 1778006739 | 11.67° C | 90% | 1016.6 hPa | 0 mm | 0 m/s | - | - |
| 1778006427 | 11.67° C | 90% | 1016.6 hPa | 0 mm | 1.34 m/s, 259° | - | - |
| 1778006114 | 11.11° C | 90% | 1016.6 hPa | 0 mm | 0.45 m/s, 309° | - | - |
| 1778005800 | 11.11° C | 91% | 1016.5 hPa | 0 mm | 1.34 m/s, 352° | - | - |
| 1778005487 | 11.11° C | 90% | 1016.5 hPa | 0 mm | 1.79 m/s, 291° | - | - |
* Rain latest hour (hover to see other rain measurements)
** Current wind speed in m/s (hover to see current wind gust speed)